User: anonymous   Login
Location: Clinton NY
(43.0598°N, 75.3602°W)
Time: 14:47:32
(UTC-05:00)
Language:

Cosmos-2242 - Orbit

View from above orbital plane
View from above orbital plane
View from above satellite
View from above satellite

Ground track
Ground track

The orbit data is extracted from the following two-line orbital elements,

1 22626U 93024A   17021.50229358  .00000261  00000-0  26014-4 0  9997
2 22626  82.5219 180.0928 0017797 245.9106 114.0250 14.87595786284347
Epoch (UTC): 21 January 2017 12:03:18
Eccentricity: 0.0017797
inclination: 82.5219°
perigee height: 593 km
apogee height: 618 km
right ascension of ascending node: 180.0928°
argument of perigee: 245.9106°
revolutions per day: 14.87595786
mean anomaly at epoch: 114.0250°
orbit number at epoch: 28434

The dashed part of the orbit path shows where the satellite is in the earth's shadow,  

DLR